Home > Weather > Southampton > Past weeks

Flag for United Kingdom Weather for the Past 2 Weeks in Southampton, England, United Kingdom

Now
63 °F

Passing clouds.


Feels Like: 63 °F
Forecast: 51 / 67 °F
Wind: 12 mph from Southeast

Location: Southampton / Weather Centre

Current Time: May 5, 2016 at 1:25:17 PM

Latest Report: May 5, 2016 at 12:50 PM


Visibility: N/A

Pressure: 30.09 "Hg

Humidity: 42%

Dew Point: 39 °F

Location of SouthamptonLocation

Historic Weather in Southampton — Graph

°F

Southampton Temperature Yesterday

Maximum temperature yesterday: 57 °F (at 12:50 PM)
Minimum temperature yesterday: 34 °F (at 5:50 AM)
Average temperature yesterday: 52 °F

High & Low Weather Summary for the Past Weeks

 TemperatureHumidityPressure
High64 °F (Apr 21, 3:20 PM)100% (Apr 28, 5:50 AM)30.39 "Hg (Apr 28, 5:50 AM)
Low27 °F (Apr 28, 5:50 AM)37% (Apr 27, 2:50 PM)29.74 "Hg (Apr 25, 4:20 PM)
Average48 °F64%30.10 "Hg
* Reported Apr 20 12:20 PM — May 5 12:20 PM, Southampton, Weather by CustomWeather, © 2016

Note: Actual official high and low records may vary slightly from our data, if they occured in-between our weather recording intervals... More about our weather records

Advertising

Southampton Weather History for the Previous 24 Hours

Scroll right to see more
 ConditionsComfort  
Time TempWeatherWind HumidityBarometerVisibility
12:20 PM
Thu, May 5
61 °FPassing clouds.7 mph39%30.12 "HgN/A
11:50 AM61 °FPassing clouds.10 mph42%30.12 "HgN/A
11:20 AM61 °FPassing clouds.9 mph48%30.12 "HgN/A
10:50 AM59 °FPassing clouds.9 mph48%30.12 "HgN/A
10:20 AM59 °FPassing clouds.8 mph51%30.15 "HgN/A
9:50 AM57 °FPassing clouds.8 mph55%30.15 "HgN/A
9:20 AM57 °FPassing clouds.6 mph51%30.15 "HgN/A
8:50 AM55 °FPassing clouds.6 mph67%30.15 "HgN/A
8:20 AM54 °FPassing clouds.5 mph72%30.15 "HgN/A
7:50 AM50 °FSunny.No wind88%30.15 "Hg10 mi
7:20 AM43 °FSunny.No wind100%30.15 "Hg10 mi
6:50 AM37 °FSunny.No wind93%30.15 "Hg10 mi
6:20 AM34 °FFog.1 mph100%30.15 "HgN/A
5:50 AM34 °FClear.1 mph93%30.15 "Hg10 mi
9:50 PM
Wed, May 4
45 °FClear.1 mph66%30.24 "Hg10 mi
9:20 PM46 °FSunny.2 mph62%30.24 "Hg10 mi
8:50 PM48 °FSunny.1 mph58%30.24 "Hg10 mi
8:20 PM52 °FPassing clouds.5 mph50%30.24 "HgN/A
7:50 PM52 °FPassing clouds.5 mph50%30.24 "HgN/A
7:20 PM55 °FPassing clouds.6 mph47%30.24 "HgN/A
6:50 PM55 °FPassing clouds.6 mph47%30.24 "HgN/A
6:20 PM55 °FPassing clouds.6 mph47%30.24 "HgN/A
5:50 PM57 °FPassing clouds.6 mph41%30.24 "HgN/A
5:20 PM57 °FPassing clouds.6 mph41%30.24 "HgN/A
4:50 PM57 °FPassing clouds.6 mph44%30.27 "HgN/A
4:20 PM57 °FPassing clouds.7 mph44%30.27 "HgN/A
3:50 PM57 °FPassing clouds.7 mph41%30.27 "HgN/A
3:20 PM57 °FPassing clouds.7 mph44%30.30 "HgN/A
2:50 PM57 °FPassing clouds.8 mph48%30.30 "HgN/A
2:20 PM57 °FPassing clouds.7 mph44%30.30 "HgN/A
1:50 PM57 °FPassing clouds.8 mph44%30.30 "HgN/A
1:20 PM57 °FPassing clouds.8 mph48%30.30 "HgN/A
Weather by CustomWeather, © 2016

See weather overviewHow to use our weather pages